CZ-8A R/B

基本信息
目录编号:
65052
目录名称:
CZ-8A R/B
国际标识:
2025-162K
轨道中心:
EARTH
物体状态:
在轨
发射日期:
2025-07-30 UTC
国别:
中国 (CN)
轨道信息
数据来源: 国际轨道数据
星历时间: 2026-09-05T14:55:51+0800
半长轴: 7167.362km
偏心率: 0.0118284
轨道倾角: 50.001°
近地点辐角: 60.771°
升交点赤经: 103.619°
平近点角: 300.498°
近地点: 704.446km
远地点: 874.004km
周期: 100.647分钟
每日圈数: 14.3075
详细信息
发射场:
WSC
轨道高度:
LEO
数据来源:
AOE Working Group
参考系:
TEME
时间系统:
UTC
历元类型:
SGP4
2D轨道图
3D轨道图
轨道高度分析图
轨道倾角分析图
轨道综合分析图
查看轨道综合分析图